Hourly Data Report for September 20, 2020

BRIER ISLAND
NOVA SCOTIA
Current Station Operator: ECCC - MSC

44°17'09.000" N
66°20'48.000" W
15.80 m
8200604
71988
WVU

Download Data

Hourly Data (September 2020)
Hourly Data Report for September 20, 2020
TIME Temp Definition
°C
Dew Point Definition
°C
Rel Hum Definition
%
Wind Dir Definition
10's deg

Wind Spd Definition
km/h
Visibility Definition
km
Stn Press Definition
kPa
Hmdx Definition


Wind Chill Definition


Weather Definition


00:00 11.8 6.4 69 32 22   102.47     LegendNANA
01:00 11.5 5.4 66 35 20   102.52     LegendNANA
02:00 11.3 5.8 69 33 30   102.53     LegendNANA
03:00 11.0 5.4 68 33 31   102.56     LegendNANA
04:00 10.4 5.7 72 34 39   102.59     LegendNANA
05:00 10.2 4.9 70 35 34   102.63     LegendNANA
06:00 9.8 4.6 70 36 29   102.74     LegendNANA
07:00 9.8 4.2 68 36 28   102.82     LegendNANA
08:00 10.5 2.9 60 36 26   102.88     LegendNANA
09:00 10.7 3.8 62 36 25   102.96     LegendNANA
10:00 10.9 4.1 63 35 27   103.00     LegendNANA
11:00 11.0 3.5 60 35 24   103.02     LegendNANA
12:00 10.9 1.2 51 35 23   103.02     LegendNANA
13:00 11.5 2.7 55 34 23   103.03     LegendNANA
14:00 11.1 2.3 55 33 21   103.02     LegendNANA
15:00 11.3 2.7 55 33 21   102.99     LegendNANA
16:00 11.2 2.8 56 33 18   103.01     LegendNANA
17:00 11.3 3.6 59 34 12   103.01     LegendNANA
18:00 10.6 4.2 65 35 9   103.06     LegendNANA
19:00 10.0 4.9 71 34 9   103.09     LegendNANA
20:00 10.4 5.4 71 32 9   103.13     LegendNANA
21:00 9.2 5.8 79 30 10   103.16     LegendNANA
22:00 9.5 6.0 79 31 8   103.20     LegendNANA
23:00 10.4 7.7 83 35 7   103.21     LegendNANA

Notes on Data Quality.

Legend

  • E = Estimated
  • M = Missing
  • NA = Not Available*
  • [empty] = Indicates an unobserved value
Date modified: